Camarillo, CA

11:32 AM PST on February 21, 2017 (GMT -0800)
Camarillo

Weather History for KCMA - October, 2011

Change the Weather History Date:

Tuesday, October 11, 2011

  Actual Average Record
Temperature  
Mean Temperature 70 °F 64 °F  
Max Temperature 83 °F 74 °F 94 °F (2015)
Min Temperature 56 °F 53 °F 41 °F (1961)
Degree Days  
Heating Degree Days 0 2  
Month to date heating degree days 9 22  
Since 1 July heating degree days 15 54  
Cooling Degree Days 5 1  
Month to date cooling degree days 22 11  
Year to date cooling degree days 442 294  
Growing Degree Days 18 (Base 50)    
Moisture  
Dew Point 55 °F    
Average Humidity 63    
Maximum Humidity 86    
Minimum Humidity 40    
Precipitation  
Precipitation 0.00 in 0.01 in 0.35 in (1975)
Month to date precipitation 0.93 0.13  
Year to date precipitation 11.20 11.35  
Since 1 July precipitation 0.97  
Sea Level Pressure  
Sea Level Pressure 29.89 in    
Wind  
Wind Speed 2 mph (WSW)    
Max Wind Speed 9 mph    
Max Gust Speed 12 mph    
Visibility 10 miles    
Events      
T = Trace of Precipitation, MM = Missing Value Source: NWS Daily Summary

Daily Weather History Graph

Daily Weather History Graph

Search for Another Location

Airport or City:

Trip Planner

Search our weather history database for the weather conditions in past years. The results will help you decide how hot, cold, wet, or windy it might be!

Date:

Astronomy

Oct. 11, 2011 Rise Set
Actual Time 6:58 AM PDT 6:27 PM PDT
Civil Twilight 6:33 AM PDT 6:52 PM PDT
Nautical Twilight 6:04 AM PDT 7:21 PM PDT
Astronomical Twilight 5:35 AM PDT 7:50 PM PDT
Moon 6:04 PM PDT (10/11) 6:39 AM PDT (10/11)
Length of Visible Light 12h 19m
Length of Day
11h 29m
Full, 100% of the Moon is Illuminated
Oct 11
Full
Oct 11
Full
Oct 19
Last Quarter
Oct 26
New
Nov 2
First Quarter

Hourly Weather History & Observations

Time (PDT) Temp. Heat Index Dew Point Humidity Pressure Visibility Wind Dir Wind Speed Gust Speed Precip Events Conditions
12:55 AM 61.0 °F - 54.0 °F 78% 29.91 in 10.0 mi Calm Calm - N/A   Clear
1:55 AM 59.0 °F - 53.1 °F 81% 29.92 in 10.0 mi NE 3.5 mph - N/A   Clear
3:55 AM 57.9 °F - 51.1 °F 78% 29.91 in 10.0 mi Calm Calm - N/A   Clear
4:55 AM 59.0 °F - 52.0 °F 78% 29.91 in 10.0 mi Calm Calm - N/A   Clear
6:55 AM 55.9 °F - 50.0 °F 80% 29.91 in 10.0 mi ENE 3.5 mph - N/A   Clear
7:55 AM 60.1 °F - 52.0 °F 75% 29.92 in 10.0 mi ENE 3.5 mph - N/A   Clear
8:55 AM 64.0 °F - 53.1 °F 67% 29.94 in 10.0 mi Calm Calm - N/A   Clear
9:55 AM 68.0 °F - 55.9 °F 65% 29.95 in 10.0 mi SW 3.5 mph - N/A   Clear
10:32 AM 71.6 °F - 57.2 °F 60% 29.91 in 10.0 mi SW 4.6 mph - N/A   Clear
10:55 AM 73.0 °F - 57.9 °F 59% 29.94 in 10.0 mi Calm Calm - N/A   Clear
1:07 PM 82.4 °F 82.0 °F 57.2 °F 42% 29.87 in 10.0 mi SW 6.9 mph - N/A   Clear
1:55 PM 80.1 °F 80.4 °F 57.0 °F 45% 29.87 in 10.0 mi West 8.1 mph - N/A   Clear
2:55 PM 81.0 °F 80.8 °F 55.9 °F 42% 29.86 in 10.0 mi WSW 8.1 mph - N/A   Clear
3:55 PM 82.0 °F 81.6 °F 55.9 °F 41% 29.86 in 10.0 mi SW 4.6 mph - N/A   Clear
4:55 PM 79.0 °F - 55.9 °F 45% 29.86 in 10.0 mi West 6.9 mph - N/A   Clear
5:55 PM 75.9 °F - 55.9 °F 50% 29.85 in 10.0 mi Calm Calm - N/A   Clear
6:55 PM 73.0 °F - 59.0 °F 61% 29.85 in 10.0 mi Calm Calm - N/A   Clear
7:55 PM 70.0 °F - 57.9 °F 65% 29.86 in 10.0 mi Calm Calm - N/A   Clear
8:55 PM 68.0 °F - 57.9 °F 70% 29.87 in 10.0 mi Calm Calm - N/A   Clear
9:55 PM 66.9 °F - 57.9 °F 73% 29.88 in 10.0 mi Calm Calm - N/A   Clear
10:55 PM 64.9 °F - 57.0 °F 75% 29.88 in 10.0 mi Calm Calm - N/A   Clear
11:55 PM 64.0 °F - 57.0 °F 78% 29.88 in 10.0 mi Calm Calm - N/A   Clear